Current weather by "City, St" or "zip code"  
 

Current Conditions: Wexford County Airport, MI

Overcast


55.0 F

Last Updated on May 21 2022, 3:55 am EDT
Humidity: 96%
Wind Speed: SW 3.5 mph
Barometer 29.77 in
Dewpoint: 53.8 F
Visibility: 7.00 mi
Precip: --
Heat Index: NA
Wind Chill: NA
Current conditions at:

Wexford County Airport, MI (KCAD)

Lat: 44.27847 Lon: 85.42069

Local Radar Image active severe weather and emergency alerts image image weather storm and storm spotter reports image weather observation monitoring service image
Local
Radar
Active
Alerts
Storm Reports Obs
Monitoring

Sign-up For Email & Text Message Weather Alert Notification Services



Advertise Here

Observation History for Wexford County Airport, MI


Time Wind
(mph)
Vis
(mi)
Weather Precip (in) Temperature (F) Relative
Humidity
Wind
Chill
(F)
Heat
Index
(F)
Pressure
Air Dwpt altimeter
(in)
sea level
(mb)
Rmks
3:55 am EDT SW 3.5 7.00 Overcast -- 55.0 53.8 96% NA NA 29.77 M
3:35 am EDT SW 3.5 10.00 Mostly Cloudy -- 55.0 53.8 96% NA NA 29.76 M
3:15 am EDT N 0.0 7.00 Mostly Cloudy -- 55.0 53.4 96% NA NA 29.74 M
2:55 am EDT N 0.0 10.00 Overcast -- 55.0 53.8 96% NA NA 29.73 M
2:35 am EDT N 0.0 10.00 Overcast -- 55.0 54.0 95% NA NA 29.74 M
2:15 am EDT N 0.0 10.00 Overcast -- 56.0 54.5 95% NA NA 29.73 M
1:55 am EDT W 5.8 10.00 Overcast -- 56.0 54.9 95% 55 NA 29.73 M
1:15 am EDT W 3.5 10.00 Overcast -- 56.0 54.7 96% NA NA 29.71 M
12:55 am EDT N 0.0 10.00 Mostly Cloudy -- 55.0 53.6 96% NA NA 29.71 M
12:35 am EDT N 0.0 5.00 Fog/Mist -- 55.0 53.6 96% NA NA 29.69 M
12:15 am EDT N 0.0 10.00 Mostly Cloudy -- 56.0 54.3 95% NA NA 29.68 M
11:55 pm EDT N 0.0 10.00 Mostly Cloudy -- 56.0 55.0 95% NA NA 29.68 M
11:35 pm EDT N 0.0 10.00 Overcast -- 57.0 54.9 94% NA NA 29.67 M
10:55 pm EDT N 0.0 10.00 Overcast -- 57.0 54.7 91% NA NA 29.66 M
10:15 pm EDT NW 3.5 10.00 Overcast -- 58.0 56.3 94% NA NA 29.65 M
9:55 pm EDT NW 3.5 10.00 Overcast -- 58.0 56.3 94% NA NA 29.64 M
9:35 pm EDT N 0.0 10.00 Overcast -- 58.0 56.3 94% NA NA 29.63 M
9:15 pm EDT W 3.5 10.00 Overcast -- 58.0 56.3 94% NA NA 29.63 M
8:55 pm EDT W 4.6 7.00 Light Rain -- 58.0 56.3 93% 58 NA 29.63 M
8:35 pm EDT N 0.0 10.00 Overcast -- 59.0 56.3 92% NA NA 29.60 M
8:15 pm EDT NW 3.5 10.00 Overcast -- 59.0 56.3 91% NA NA 29.59 M
7:55 pm EDT NW 3.5 10.00 Overcast -- 59.0 56.1 91% NA NA 29.58 M
5:55 pm EDT W 11.5 2.00 Heavy Drizzle -- 64.0 61.3 92% NA NA 29.51 M
5:15 pm EDT W 10.4 10.00 Overcast -- 67.0 63.9 91% NA NA 29.47 M

Regional Weather Observation


Wexford County Airport, MI (KCAD)

Overcast
55.0 F

Bellaire, Antrim County Airport, MI (KACB)

Fog
53.0 F

Frankfort, Frankfort Dow Memorial Field Airport, MI (KFKS)

Fair
49.0 F

Manistee County - Blacker Airport, MI (KMBL)

Fog
50.0 F

Grayling, Grayling Army Airfield, MI (KGOV)

Mostly Cloudy
55.0 F

Houghton Lake, Roscommon County Airport, MI (KHTL)

Overcast
58.0 F

Advertise Here


Advertise Here